Retour au catalogue

STARLINK-30860

ActifCommunicationsVLEO
NORAD 58234·PAYLOAD·🇺🇸 United States

Lancé Nov 8, 2023 depuis Cape Canaveral Space Force Station

Loading…

Prochains Passages (prochaines 24 heures)

TLE

FraisSource: CelesTrak SupGP

Époque: Sep 15, 2026, 02:26 UTC

1 58234C 23171E   26258.10187500  .00019068  00000+0  69052-3 0  2587
2 58234  43.0006 295.1246 0001423 263.4717 235.2879 15.27574794    14

Suivez STARLINK-30860 en temps réel avec AllMySat

Download on the App Store